Regional Weather Roundup
Issued by NWS State College, PA

Home | Current Version | Previous Version | Text Only | Print | Product List | Glossary On
Versions: 1 2 3 4 5 6 7 8 9 10 11 12 13 14 15 16 17 18 19 20 21 22 23 24 25 26 27 28 29 30 31 32 33 34 35 36 37 38 39 40 41 42 43 44 45 46 47 48 49 50
000
ASUS41 KCTP 221003
RWRCTP

REGIONAL WEATHER ROUNDUP
NATIONAL WEATHER SERVICE STATE COLLEGE PA
500 AM EST SAT NOV 22 2014

Note: "fair" indicates few or no clouds below 12,000 feet with no
significant weather and/or obstructions to visibility.

* = STATION THAT DOES NOT REPORT PRECIPITATION /E.G. RAIN...SNOW...ETC/
    THUNDER OR FOG.

PAZ002>004-007>009-013>016-020>023-029>032-221100-
WESTERN PENNSYLVANIA

CITY           SKY/WX    TMP DP  RH WIND       PRES   REMARKS
ERIE           PTCLDY    26   7  44 S15G22    30.28F WCI  14
MEADVILLE      PTCLDY    20   7  57 S7        30.28F WCI  11
FRANKLIN*      PTCLDY    16   7  67 S9        30.32F WCI   4
NEW CASTLE       N/A     17   9  71 CALM      30.35F
BEAVER COUNTY  NOT AVBL
BUTLER*        CLEAR     19   9  63 SE3       30.35F
PITTSBURGH INT PTCLDY    17   9  70 S5        30.34F WCI  10
PITTSBURGH     PTCLDY    17   9  70 S10       30.35F WCI   5
INDIANA*       CLEAR     16   9  73 E3        30.39F
LATROBE        PTCLDY    12  10  92 CALM      30.39F
WASHINGTON CO* PTCLDY    16   9  73 CALM      30.36F
$$

PAZ004>006-010>012-017>019-024>028-033>037-041-042-045-046-049>053-221100-
CENTRAL PENNSYLVANIA

CITY           SKY/WX    TMP DP  RH WIND       PRES   REMARKS
BRADFORD       PTCLDY    16   6  65 SW5       30.27F WCI   9
DUBOIS         PTCLDY    17   7  64 S5        30.31F WCI  10
CLEARFIELD     PTCLDY     9   6  88 CALM      30.37F
JOHNSTOWN      PTCLDY    21   3  45 S9        30.31F WCI  11
ALTOONA        PTCLDY    18   9  68 CALM      30.38F
STATE COLLEGE  PTCLDY    14   9  79 CALM      30.40F
WILLIAMSPORT   PTCLDY    14   9  80 CALM      30.46F
SELINSGROVE    CLEAR     14  10  84 NW3       30.48S
FT INDIANTOWN  PTCLDY    15  10  83 CALM      30.49S
CAPITAL CITY   CLEAR     17  11  77 CALM      30.50F
HARRISBURG     CLEAR     17  12  80 CALM      30.50S
YORK           CLEAR     13   9  84 CALM      30.48F
$$

PAZ038>040-043-044-047-048-054-055-060>062-067>071-221100-
EASTERN PENNSYLVANIA

CITY           SKY/WX    TMP DP  RH WIND       PRES   REMARKS
SCRANTON       PTCLDY    20   9  62 CALM      30.41S
MOUNT POCONO   CLEAR     15   7  70 NW3       30.34R
ALLENTOWN      CLEAR     17   9  70 CALM      30.48S
QUAKERTOWN*    SUNNY     14  10  85 CALM      30.49R
READING        FAIR      20  11  68 SW5       30.49S WCI  13
LANCASTER      CLEAR     18  11  74 CALM      30.49F
COATESVILLE    SUNNY     23  10  58 SW5       30.48F
POTTSTOWN      CLEAR     17  11  77 CALM      30.51S
BLUE BELL      CLEAR     21  16  79 CALM      30.49S
DOYLESTOWN     CLEAR     20  11  68 SW3       30.48S
WILLOW GROVE   NOT AVBL
NORTH PHILA    CLEAR     27  10  49 SW3       30.53R
PHILADELPHIA   CLEAR     25  12  58 W7        30.53F
$$



USA.gov is the U.S. government's official web portal to all federal, state and local government web resources and services.